Change the Weather History Date:

Thursday, March 7, 2013

  Actual Average (KHOT) Record (KHOT)
Temperature  
Mean Temperature 50 °F -  
Max Temperature 60 °F 62 °F 81 °F (1974)
Min Temperature 39 °F 38 °F 21 °F (1989)
Degree Days  
Heating Degree Days 16    
Moisture  
Dew Point 31 °F    
Average Humidity 53    
Maximum Humidity 70    
Minimum Humidity 35    
Precipitation  
Precipitation 0.00 in - - ()
Sea Level Pressure  
Sea Level Pressure 30.28 in    
Wind  
Wind Speed 3 mph (ESE)    
Max Wind Speed 9 mph    
Max Gust Speed -    
Visibility 10 miles    
Events      
Averages and records for this station are not official NWS values.
T = Trace of Precipitation, MM = Missing Value Source: NWS Daily Summary

Daily Weather History Graph

Daily Weather History Graph

Search for Another Location

Airport or City:

Trip Planner

Search our weather history database for the weather conditions in past years. The results will help you decide how hot, cold, wet, or windy it might be!

Date:

Astronomy

Mar. 07, 2013 Rise Set
Actual Time 6:33 AM CST 6:13 PM CST
Civil Twilight 6:08 AM CST 6:38 PM CST
Nautical Twilight 5:38 AM CST 7:08 PM CST
Astronomical Twilight 5:09 AM CST 7:37 PM CST
Moon 3:26 AM CST (3/7) 2:09 PM CST (3/7)
Length of Visible Light 12h 30m
Length of Day
11h 39m
Waning Crescent, 20% of the Moon is Illuminated
Mar 7
Waning Crescent
Mar 11
New
Mar 19
First Quarter
Mar 27
Full
Apr 2
Last Quarter

Hourly Weather History & Observations

Time (CST) Temp. Windchill Dew Point Humidity Pressure Visibility Wind Dir Wind Speed Gust Speed Precip Events Conditions
12:53 AM 39.9 °F - 30.0 °F 68% 30.27 in 10.0 mi Calm Calm - N/A   Clear
1:53 AM 41.0 °F - 28.9 °F 62% 30.27 in 10.0 mi Calm Calm - N/A   Clear
2:53 AM 39.9 °F - 28.9 °F 65% 30.28 in 10.0 mi Calm Calm - N/A   Clear
3:53 AM 39.9 °F - 30.0 °F 68% 30.29 in 10.0 mi Calm Calm - N/A   Clear
4:53 AM 39.0 °F - 30.0 °F 70% 30.30 in 10.0 mi Calm Calm - N/A   Partly Cloudy
5:53 AM 39.0 °F - 30.0 °F 70% 30.31 in 10.0 mi Calm Calm - N/A   Clear
6:53 AM 39.9 °F - 30.0 °F 68% 30.33 in 10.0 mi Calm Calm - N/A   Clear
7:53 AM 41.0 °F - 30.0 °F 65% 30.33 in 10.0 mi Calm Calm - N/A   Clear
8:53 AM 45.0 °F 42.6 °F 30.0 °F 56% 30.34 in 10.0 mi Variable 4.6 mph - N/A   Clear
9:43 AM 46.4 °F 43.5 °F 28.4 °F 50% 30.34 in 9.0 mi Variable 5.8 mph - N/A   Partly Cloudy
9:53 AM 48.0 °F - 28.9 °F 48% 30.34 in 10.0 mi SSE 6.9 mph - N/A   Clear
10:53 AM 51.1 °F - 28.9 °F 43% 30.34 in 10.0 mi Variable 3.5 mph - N/A   Clear
11:53 AM 54.0 °F - 30.0 °F 40% 30.32 in 10.0 mi Variable 4.6 mph - N/A   Clear
12:53 PM 55.9 °F - 30.0 °F 37% 30.29 in 10.0 mi Variable 6.9 mph - N/A   Clear
1:53 PM 57.0 °F - 30.9 °F 37% 30.26 in 10.0 mi Variable 6.9 mph - N/A   Clear
2:53 PM 57.9 °F - 30.9 °F 36% 30.24 in 10.0 mi East 9.2 mph - N/A   Clear
3:53 PM 60.1 °F - 32.0 °F 35% 30.22 in 10.0 mi East 6.9 mph - N/A   Clear
4:53 PM 57.9 °F - 30.9 °F 36% 30.21 in 10.0 mi East 8.1 mph - N/A   Clear
5:53 PM 55.9 °F - 30.9 °F 39% 30.20 in 10.0 mi East 6.9 mph - N/A   Clear
6:53 PM 53.1 °F - 32.0 °F 45% 30.22 in 10.0 mi ESE 6.9 mph - N/A   Clear
7:53 PM 51.1 °F - 32.0 °F 48% 30.22 in 10.0 mi ESE 5.8 mph - N/A   Partly Cloudy
8:53 PM 48.9 °F - 33.1 °F 54% 30.23 in 10.0 mi East 5.8 mph - N/A   Clear
9:53 PM 46.9 °F - 33.1 °F 59% 30.24 in 10.0 mi Calm Calm - N/A   Clear
10:53 PM 46.0 °F 43.9 °F 33.1 °F 61% 30.25 in 10.0 mi ESE 4.6 mph - N/A   Clear
11:53 PM 46.0 °F 43.9 °F 33.1 °F 61% 30.25 in 10.0 mi ESE 4.6 mph - N/A   Clear